Location: Martley
(52.2333°N, 2.3667°W)
Time: 17:46:12
(UTC+00:00)

Cosmos 1844 Rocket - Pass Details

Date: 11 December 2019
Orbit: 825 x 844 km, 71.0° (Epoch: 25 January)

Event Time Altitude Azimuth Distance (km) Brightness Sun altitude
Rises 06:56:32 0° 206° (SSW) 3,358 5.8 -10.2°
Reaches altitude 10° 06:58:58 10° 206° (SSW) 2,427 5.1 -9.9°
Maximum altitude 07:04:32 84° 119° (ESE) 838 2.8 -9.1°
Drops below altitude 10° 07:10:07 10° 32° (NNE) 2,438 5.2 -8.3°
Sets 07:12:34 0° 32° (NNE) 3,375 5.9 -8.0°
